Location: Ernez
(36.4595°N, 29.8755°E)
Time: 09:05:01
(UTC+00:00)

USA 215 - Pass Details

Date: 13 November 2025
Orbit: 1101 x 1106 km, 123.0° (Epoch: 02 December)

Event Time Altitude Azimuth Distance (km) Brightness Sun altitude
Rises 16:03:59 0° 145° (SE) 3,906 5.9 -14.4°
Reaches altitude 10° 16:06:30 10° 149° (SSE) 2,952 5.3 -14.9°
Maximum altitude 16:12:56 62° 229° (SW) 1,226 3.7 -16.2°
Drops below altitude 10° 16:19:25 10° 310° (NW) 2,967 6.1 -17.5°
Sets 16:21:57 0° 313° (NW) 3,928 6.7 -18.0°
